Location: Chiroubles
(46.1812°N, 4.6660°E)
Time: 15:59:57
(UTC+00:00)

Transit 4A - Pass Details

Date: 06 December 2020
Orbit: 864 x 980 km, 66.8° (Epoch: 26 January)

Event Time Altitude Azimuth Distance (km) Brightness Sun altitude
Rises 16:09:19 0° 316° (NW) 3,668 11.2 -2.9°
Reaches altitude 10° 16:12:32 10° 301° (WNW) 2,702 10.8 -3.3°
Maximum altitude 16:16:58 20° 256° (WSW) 2,018 11.0 -4.0°
Drops below altitude 10° 16:21:19 10° 210° (SSW) 2,636 11.3 -4.7°
Sets 16:24:27 0° 195° (SSW) 3,553 11.6 -5.2°
